User: anonymous   Login
Location: Unspecified
(0.0000°N, 0.0000°E)
Time: 00:08:14
(UTC+00:00)
Language:

AO-Echo - Orbit

View from above orbital plane
View from above orbital plane
View from above satellite
View from above satellite

Ground track
Ground track

The orbit data is extracted from the following two-line orbital elements,

1 28375U 04025K   18199.53925142  .00000007  00000-0  15247-4 0  9995
2 28375  98.3852 130.4187 0082711 167.8418 192.4793 14.41892453738936
Epoch (UTC): 18 July 2018 12:56:31
Eccentricity: 0.0082711
inclination: 98.3852°
perigee height: 693 km
apogee height: 811 km
right ascension of ascending node: 130.4187°
argument of perigee: 167.8418°
revolutions per day: 14.41892453
mean anomaly at epoch: 192.4793°
orbit number at epoch: 73893

The dashed part of the orbit path shows where the satellite is in the earth's shadow,  

DLR